Wind_Gust
30 35 37 38 34 33 29 32 30 27 23 24 27 29 23 30 27 22 30 34 34 31 28 34 22 22 21 20 20 19 16 17 17 19 20 21 22 22 21 17 17 17 19 19 15 12 11 13 15 16 16 14 11 10 10 10 9 8 9 8 9 10 10 11 8 8 10 10 10 10 13 14 13 15 14 14 11 13 13 12 19 20 20 19 17 15
30 36 37 33 30 29 30 29 29 31 19 24 27 29 27 29 27 22 29 35 36 29 30 31 26 22 21 20 20 19 18 17 16 17 18 21 22 19 19 16 17 19 18 16 12 12 12 15 16 16 15 12 13 12 11 11 12 12 11 10 10 9 9 9 8 9 7 8 12 11 11 13 15 14 14 15 14 14 15 15 16 18 18 18 17 10
37 42 36 31 31 27 29 29 29 29 22 21 28 29 27 31 27 23 23 28 33 33 32 33 29 22 20 19 18 19 18 18 15 15 14 16 19 18 18 16 15 15 15 15 15 14 18 18 17 17 14 13 12 13 12 12 13 13 13 13 11 9 8 8 8 7 8 9 10 11 12 12 16 15 16 16 12 15 16 18 19 20 18 18 17 12
37 36 32 29 30 29 30 29 30 26 24 25 29 30 29 29 34 32 27 29 28 36 28 27 26 23 19 18 18 18 20 20 19 18 18 16 19 17 17 16 16 15 16 16 15 17 18 17 17 16 15 13 12 12 12 11 11 11 11 10 9 12 11 9 9 6 7 8 8 9 13 14 16 16 13 13 13 16 18 18 19 19 16 14 12 13
33 25 30 29 31 30 31 32 32 27 28 25 27 28 29 30 32 24 29 31 27 26 24 29 26 24 22 22 22 19 21 22 22 21 19 17 16 15 16 17 13 14 15 16 16 17 18 18 17 16 15 13 13 13 13 13 13 11 11 10 10 10 8 6 6 6 7 9 10 10 11 11 13 15 16 15 17 17 15 16 16 17 15 15 14 15
30 26 30 32 34 32 32 35 36 28 30 29 25 25 23 27 26 28 28 31 33 32 28 34 32 31 26 23 23 24 25 23 22 22 21 19 19 18 18 18 16 18 17 17 19 18 18 18 18 17 15 14 15 15 12 11 11 11 11 11 9 8 7 6 7 8 10 11 11 11 12 13 14 14 14 16 16 16 17 18 16 13 13 14 15 14
28 26 31 34 35 34 33 32 31 29 30 27 33 26 28 26 29 31 32 31 34 36 33 30 31 29 28 26 23 24 23 22 22 21 20 20 19 20 21 20 21 20 19 19 19 19 18 17 16 15 14 15 15 13 11 11 10 10 11 9 8 7 7 7 6 7 9 9 10 11 12 12 14 15 14 14 13 15 15 15 14 14 12 16 19 15
31 31 33 34 36 37 33 36 35 34 30 30 23 28 27 28 28 27 32 30 28 23 28 31 36 27 32 29 24 23 25 23 23 22 20 21 20 22 19 19 18 20 18 19 19 19 18 18 17 17 16 15 15 12 12 13 12 11 10 9 8 8 7 7 6 7 7 8 9 11 12 12 13 13 14 12 13 12 12 14 15 15 12 13 15 15
26 31 34 35 32 38 37 30 28 33 37 26 26 26 20 27 30 28 31 32 28 28 33 36 34 29 27 26 24 28 27 26 25 24 22 23 23 21 20 21 21 21 21 20 21 20 20 19 18 18 17 16 17 17 16 14 13 12 11 10 9 9 8 7 6 7 8 10 10 13 12 11 11 12 12 12 11 11 10 13 14 14 15 14 16 17
35 28 30 29 33 36 28 30 28 33 36 25 28 27 23 21 29 28 32 33 28 29 29 34 36 34 27 25 30 29 27 28 28 25 22 21 19 18 20 19 19 18 19 20 20 19 18 18 17 17 16 17 16 16 15 14 14 13 12 11 10 10 9 7 7 9 10 10 11 12 10 11 12 12 12 12 11 10 11 14 14 15 16 14 14 15
27 23 27 34 36 30 28 28 29 31 33 24 29 30 29 25 28 31 31 32 29 25 30 30 33 33 28 29 31 34 32 30 27 24 22 21 19 19 18 17 17 18 18 18 18 19 19 18 17 16 18 18 17 16 15 15 15 15 14 13 12 12 12 10 9 11 12 11 12 13 12 11 11 13 13 14 11 10 11 13 13 15 17 16 16 13
24 27 31 36 26 28 24 32 28 29 34 25 32 34 29 26 22 26 30 30 35 33 27 31 35 35 25 28 32 24 23 26 26 25 26 22 19 18 15 17 18 18 17 17 18 18 17 17 18 17 17 18 17 16 17 15 15 14 14 14 13 13 14 15 15 15 16 15 13 12 13 14 12 13 16 14 14 13 12 13 15 16 18 19 20 19
31 33 28 27 27 30 34 31 33 33 36 29 30 33 32 35 32 35 35 36 36 33 27 30 33 37 28 23 27 25 24 23 21 23 24 22 22 19 18 18 17 17 17 18 18 17 17 17 17 16 16 16 17 18 16 17 16 15 15 15 13 13 13 13 14 15 16 17 17 17 17 15 13 13 15 16 15 14 15 16 15 17 19 21 21 19
32 27 32 29 28 35 32 39 40 40 40 34 37 37 36 38 35 30 34 29 32 30 28 34 31 32 20 29 25 27 26 24 24 23 21 20 20 19 18 17 17 17 17 18 17 17 18 17 16 16 16 17 17 17 17 16 16 15 15 15 14 14 14 14 15 15 14 15 15 16 18 18 15 14 14 15 18 16 16 16 17 19 20 21 21 20
31 36 39 35 38 34 40 36 33 32 36 38 30 36 32 31 41 31 38 37 34 29 24 25 38 31 28 23 25 29 27 25 23 22 21 21 20 19 19 18 17 17 17 18 18 18 18 17 16 17 16 16 17 17 17 17 16 16 16 17 16 16 15 15 15 15 15 16 17 17 17 18 18 16 15 13 15 16 16 20 20 23 22 20 19 21
33 32 32 34 21 36 37 34 32 30 31 35 33 29 35 34 26 31 20 27 30 27 22 25 23 16 25 26 25 26 26 26 22 21 19 19 19 19 19 18 18 18 18 17 17 17 16 16 16 17 16 16 16 16 16 16 16 16 16 16 16 16 16 16 15 16 16 15 16 16 17 18 18 18 18 14 14 15 16 18 20 22 22 22 19 19
38 38 33 34 26 34 31 31 37 33 39 37 37 41 36 27 29 23 8 11 7 20 27 21 24 22 23 19 22 24 25 23 21 20 19 19 18 18 19 18 17 17 17 17 18 19 17 17 18 17 17 17 16 16 16 16 16 16 16 17 17 17 16 17 17 17 18 17 17 16 16 17 19 21 20 19 16 13 14 16 20 21 22 20 21 21
31 31 34 38 33 34 31 30 31 34 29 35 40 33 27 33 28 30 29 17 21 29 25 27 25 25 28 24 25 24 24 22 21 21 19 18 18 18 19 18 17 17 17 17 17 17 18 17 18 18 17 16 17 17 17 17 15 16 15 17 17 18 18 19 18 18 17 18 17 17 18 19 20 21 21 20 16 16 14 16 17 16 17 20 24 24
29 28 37 33 32 35 33 32 34 31 34 33 34 22 44 39 37 33 30 27 32 33 26 26 27 28 29 25 31 28 27 25 22 21 20 19 18 19 19 19 17 16 18 17 16 17 16 16 16 17 15 17 16 15 16 16 16 17 16 15 17 19 20 19 19 18 17 17 16 16 18 19 21 21 22 19 17 18 17 18 16 18 20 19 20 23
27 26 31 32 36 35 34 37 39 36 35 33 28 34 31 30 33 33 37 24 34 28 23 25 31 30 33 31 34 34 31 30 27 23 20 19 18 18 18 17 16 16 17 16 16 15 16 15 16 16 16 17 17 17 17 17 17 18 18 19 19 21 21 21 21 20 19 18 18 19 19 18 21 22 22 21 19 15 17 19 16 16 20 20 20 20
26 19 28 36 32 33 40 43 39 39 39 42 40 41 40 35 25 26 31 34 34 33 26 26 30 25 19 32 34 32 31 30 28 25 22 22 20 19 17 17 16 15 15 15 14 15 15 16 16 16 16 17 17 16 17 18 18 18 19 20 20 21 22 23 21 21 20 20 20 19 19 19 19 20 20 19 18 16 14 14 15 16 19 20 18 21
27 28 22 36 43 41 34 37 32 34 36 34 33 37 38 34 35 34 30 33 35 37 32 28 29 22 19 19 28 31 28 29 26 24 24 21 20 19 18 16 15 15 15 14 14 15 16 16 17 16 17 17 17 18 17 17 17 17 18 21 19 21 24 23 23 22 21 20 20 20 20 19 18 20 22 21 19 15 16 15 14 15 18 18 20 20
27 29 26 33 41 37 30 33 33 30 32 31 34 37 37 34 32 35 31 30 29 31 27 27 23 15 19 20 25 28 27 28 26 25 26 23 21 19 18 17 15 15 15 15 15 16 16 16 16 17 17 17 17 17 17 17 18 18 18 20 20 22 24 23 22 21 21 20 20 19 19 20 18 19 20 20 20 20 20 21 17 16 19 19 18 17
10 31 31 33 29 28 31 33 31 27 31 34 36 32 32 37 34 31 30 23 28 20 27 24 22 20 17 18 27 24 23 26 26 25 27 25 21 20 18 16 16 16 15 15 16 16 17 16 15 16 16 18 18 17 18 18 18 18 19 21 23 23 23 22 21 22 20 20 20 19 20 20 20 19 20 20 20 20 21 24 22 19 19 19 20 20
32 26 27 30 35 35 25 27 33 26 30 38 36 35 32 33 31 27 24 19 26 25 19 19 22 16 17 14 25 25 26 26 26 24 25 27 22 19 18 17 17 16 16 16 16 17 17 17 17 17 17 18 18 18 17 18 18 18 19 21 22 22 22 22 22 21 21 21 21 20 21 20 20 20 20 20 20 21 22 21 22 21 21 21 22 20
24 22 30 33 35 36 38 41 43 37 36 34 31 36 35 34 33 33 31 24 23 24 26 24 19 21 18 17 22 27 27 26 24 24 23 23 22 20 18 18 17 16 16 15 16 17 18 18 18 17 16 17 17 18 18 19 19 19 20 21 19 21 21 22 23 22 21 22 23 23 22 21 20 20 21 21 21 21 22 22 21 21 20 20 21 22
25 17 17 20 28 30 29 27 24 27 31 38 31 35 37 34 34 32 28 26 26 20 28 23 33 29 23 22 25 23 27 27 25 24 25 24 21 19 17 17 16 16 16 16 16 17 17 18 18 17 16 16 16 18 18 19 20 20 21 20 20 21 21 22 23 22 23 21 21 22 22 22 22 22 22 22 22 22 22 22 22 22 23 20 19 22
19 19 16 17 15 17 24 28 30 31 31 33 30 28 28 27 30 33 28 26 17 16 21 24 36 36 29 27 25 25 23 24 24 23 23 23 22 20 19 18 14 17 16 16 16 17 17 17 17 17 16 17 18 19 19 19 20 21 21 22 21 22 23 23 22 22 23 23 22 23 23 22 22 22 22 22 22 21 21 23 22 23 25 24 22 19
24 15 15 16 16 12 12 16 22 31 30 26 25 26 27 23 19 19 19 16 13 19 17 25 29 36 31 25 24 22 23 23 23 21 21 22 23 21 20 19 18 17 17 18 17 16 16 16 16 16 17 18 18 19 19 20 20 21 20 21 21 22 21 22 22 22 23 23 23 24 24 23 23 23 24 24 23 22 23 22 22 23 24 25 26 27
18 14 16 19 23 16 15 17 20 26 26 25 25 22 17 21 22 19 11 10 13 15 26 26 27 30 27 26 24 22 21 24 24 21 22 22 22 21 20 19 18 18 17 18 17 16 16 16 16 16 16 17 19 20 21 21 21 21 21 21 22 21 21 21 22 22 23 23 24 25 25 25 24 26 25 25 24 24 24 24 23 23 23 24 25 25
16 16 16 24 26 22 17 17 20 24 24 29 19 17 15 19 22 21 21 25 29 24 27 33 34 27 20 23 26 22 22 22 23 22 22 22 21 20 19 18 17 18 18 18 16 16 15 15 16 17 17 18 20 20 20 21 20 20 20 21 21 21 22 22 22 22 23 23 23 25 26 25 26 26 26 25 26 24 25 25 24 23 24 24 24 23
15 16 19 24 23 20 18 19 22 25 28 28 25 20 16 17 21 20 19 12 17 27 27 27 26 22 22 24 24 23 22 22 22 22 21 20 19 19 19 18 18 18 17 16 15 16 15 16 16 17 17 18 19 19 20 20 21 20 21 21 21 21 21 21 22 22 23 23 24 25 26 26 26 27 27 27 27 26 25 25 24 24 24 24 25 25
26 25 19 21 24 21 22 21 28 31 31 25 14 16 16 19 21 25 25 21 21 24 23 14 17 26 28 26 27 23 23 22 21 20 21 20 18 18 18 18 18 17 17 16 16 17 17 17 16 16 17 17 19 19 19 20 20 20 20 21 20 21 20 21 21 22 23 24 24 25 26 26 27 27 27 27 27 26 26 26 25 26 24 24 23 23
27 24 19 18 21 24 25 24 22 27 30 22 14 8 13 14 17 22 23 22 22 15 20 24 33 30 27 27 27 26 22 22 21 19 17 19 20 18 17 17 17 17 17 17 16 17 17 17 17 17 17 17 17 18 17 18 18 18 19 20 20 20 21 21 21 23 23 24 24 24 25 26 26 27 26 26 27 26 27 26 27 25 24 23 24 25
23 26 17 16 22 25 23 22 23 23 16 10 10 8 10 15 22 26 23 20 20 23 30 33 31 28 25 25 26 25 24 23 21 20 18 17 17 18 18 16 16 16 16 17 18 17 16 16 17 16 17 18 18 17 18 19 19 19 19 20 20 21 21 21 23 24 23 24 24 25 25 26 26 26 26 26 26 26 27 27 26 26 25 24 24 24
20 21 20 20 20 18 23 28 32 14 8 7 10 12 16 20 23 27 27 21 19 21 25 32 29 28 27 27 26 26 27 26 25 20 18 16 16 17 17 16 15 15 16 16 16 16 15 16 17 17 17 17 16 19 19 20 20 20 21 20 21 21 22 22 23 24 24 25 25 25 26 25 25 25 26 26 26 26 26 26 26 25 24 23 24 22
20 21 18 21 24 23 19 15 17 18 15 13 16 16 24 20 21 11 16 14 13 18 23 30 29 28 28 27 27 27 25 25 25 22 15 15 16 16 17 17 16 16 16 17 16 16 14 14 14 13 15 18 20 20 19 19 18 18 21 22 22 22 23 22 23 24 25 25 26 25 25 24 24 24 25 26 26 26 26 25 25 24 24 24 24 24
19 18 21 22 22 19 23 19 19 15 16 17 14 18 10 12 12 19 23 14 10 16 22 26 28 28 28 27 27 26 21 22 21 17 14 14 16 17 16 16 16 16 15 15 15 15 13 13 14 16 18 16 16 17 17 17 18 19 19 20 22 23 24 23 24 24 25 25 25 24 25 24 24 23 24 24 26 27 26 25 24 24 23 23 23 24
16 17 20 22 17 21 21 23 20 19 9 11 19 18 14 12 9 14 13 16 16 18 22 26 28 26 27 28 29 24 18 17 18 19 18 17 17 16 17 16 16 15 14 14 14 14 14 14 15 15 15 15 15 17 16 16 17 19 20 21 22 21 23 23 24 24 25 24 22 24 25 25 24 22 22 23 24 25 25 25 25 24 23 22 21 22
16 17 23 25 16 19 20 22 16 16 14 11 17 17 16 13 12 15 18 18 22 22 23 27 28 28 26 24 19 15 17 21 25 23 20 18 18 17 17 17 16 16 15 14 14 14 14 14 15 15 15 16 16 15 16 15 18 18 20 20 21 22 22 23 23 22 21 20 21 23 25 24 24 23 23 23 23 25 25 24 25 25 24 23 23 22
22 18 15 19 22 20 18 18 19 15 14 16 16 16 16 11 12 15 17 23 29 26 24 25 27 27 26 22 16 15 14 20 27 28 23 21 19 18 17 16 16 16 15 14 14 10 15 16 17 17 17 17 16 16 16 17 18 19 19 20 21 22 22 22 22 22 19 19 21 22 24 24 24 24 23 22 22 21 21 22 23 23 23 23 24 22
13 9 12 14 20 23 22 18 19 20 10 15 12 13 13 12 13 14 21 26 32 28 25 26 28 26 22 16 17 23 30 33 30 26 24 21 21 20 19 18 17 17 15 13 12 14 16 17 17 17 18 17 19 18 18 18 18 19 20 20 21 20 21 21 21 21 19 18 19 19 21 24 22 22 22 22 24 24 24 22 23 23 23 23 22 22
15 11 15 14 9 15 19 22 18 16 11 13 15 14 11 9 14 23 31 27 26 29 28 27 26 22 20 24 25 29 31 31 29 27 24 22 21 21 19 18 17 17 15 14 15 16 16 18 18 18 17 18 18 19 20 20 20 20 19 20 18 19 19 20 20 21 21 20 20 19 20 21 21 21 22 23 23 24 25 24 23 23 24 23 22 23
18 13 12 13 20 14 20 15 16 18 24 17 14 10 13 18 25 28 30 33 27 29 27 26 23 22 24 28 31 30 30 30 28 26 25 23 21 20 19 17 17 16 16 16 17 17 16 18 18 18 17 17 18 18 18 19 21 20 20 19 19 18 18 18 19 20 21 20 21 21 21 22 24 24 22 22 23 23 24 25 24 24 25 25 25 25
22 18 20 17 21 20 18 18 18 19 19 16 17 23 22 22 23 25 26 30 30 26 24 27 27 25 26 29 29 30 31 27 28 26 25 24 22 20 18 18 17 17 17 17 18 16 16 18 17 17 17 17 16 16 17 18 20 19 19 19 19 19 18 18 19 19 18 20 21 22 22 21 24 25 25 24 24 24 26 25 26 28 26 24 25 26
14 17 19 26 25 27 27 21 18 20 20 19 19 22 24 23 24 25 28 29 25 26 26 29 29 29 29 28 32 28 28 28 28 27 24 22 22 21 19 19 18 17 17 17 17 16 17 17 16 16 16 16 16 17 17 19 19 19 18 18 18 19 19 18 18 18 19 19 19 20 22 22 22 24 26 25 26 24 25 27 28 28 28 28 27 26
11 11 12 23 25 15 16 13 19 20 19 20 23 22 22 23 25 24 26 28 27 27 30 28 30 29 28 27 28 30 29 28 28 27 25 24 23 21 20 20 19 18 18 18 17 15 17 16 17 17 16 16 15 17 16 16 18 19 18 19 18 18 19 19 18 18 18 19 19 18 19 20 21 20 23 25 26 26 26 27 27 28 28 28 28 27
13 11 20 19 18 13 21 18 18 19 20 21 24 24 26 25 25 24 27 27 29 29 29 30 28 28 27 29 28 30 29 27 28 27 25 23 23 23 22 22 20 19 18 16 15 15 15 16 15 15 15 16 17 16 16 17 19 19 19 19 19 18 18 18 18 19 18 18 18 18 19 19 10 16 19 21 24 25 25 25 25 26 26 27 27 26
18 17 16 16 21 24 21 19 20 22 21 20 21 21 22 24 26 26 28 30 31 31 29 27 25 27 29 31 29 29 29 27 26 27 27 26 24 23 23 21 19 18 17 16 15 14 15 15 16 15 15 17 16 16 17 17 18 18 18 19 19 18 18 18 16 17 18 18 18 19 17 18 19 20 19 18 20 22 22 22 23 23 22 20 21 22
18 21 24 22 25 20 21 26 28 27 24 21 21 22 22 23 26 28 29 30 30 31 31 31 29 27 29 29 28 28 28 28 26 25 25 25 24 22 20 20 19 18 18 17 17 16 15 14 15 15 16 17 16 16 18 18 18 18 19 19 19 19 18 17 17 17 18 19 19 19 18 18 19 19 19 19 17 17 17 10 15 18 20 18 9 11
14 22 19 16 15 19 24 29 17 23 26 23 24 22 24 25 27 30 31 31 30 29 30 33 34 32 29 28 26 27 27 28 27 25 24 24 24 22 22 20 20 20 19 18 17 17 16 17 14 14 15 18 17 17 17 17 18 18 19 19 19 20 20 20 18 19 18 18 19 17 16 17 19 19 19 19 20 17 14 13 16 12 13 10 9 9
Wind_Speed
13 15 16 17 16 18 18 19 18 16 13 14 14 16 11 14 13 11 17 20 20 16 15 20 13 12 11 11 10 9 5 7 8 10 10 10 11 11 11 8 8 10 10 10 6 5 6 7 7 8 7 7 6 5 5 4 4 3 3 2 4 4 5 4 2 2 4 4 3 3 3 4 5 4 4 4 3 5 5 5 5 8 10 11 9 6
14 16 18 20 19 17 18 17 18 19 11 14 14 16 10 15 12 12 17 21 20 14 14 18 13 12 11 11 11 10 9 9 8 9 10 12 12 9 11 8 9 10 8 9 6 6 5 7 9 9 7 7 7 7 7 7 7 6 6 4 4 3 3 2 2 2 0 1 3 4 4 5 5 5 5 6 5 5 6 7 7 9 10 9 7 4
16 19 19 19 18 16 18 18 18 18 11 10 12 14 12 12 10 10 10 17 17 16 13 19 15 11 11 10 9 9 8 6 5 6 6 7 9 8 8 8 8 7 8 7 8 8 9 10 10 9 7 7 7 7 7 7 7 7 6 6 5 4 2 2 2 1 2 3 4 5 5 3 5 6 6 6 5 3 5 5 5 8 10 9 7 6
16 16 20 18 18 18 17 17 18 16 12 10 12 13 12 13 15 13 13 18 16 14 10 15 14 10 9 9 9 10 10 9 8 7 7 6 10 8 8 7 7 7 7 7 8 9 10 9 9 9 8 7 6 7 6 6 5 4 5 4 4 5 4 3 3 1 1 2 2 3 5 6 6 5 5 6 6 6 6 5 6 9 8 5 4 6
16 13 18 18 19 19 18 18 20 13 12 13 15 13 13 16 16 11 12 15 14 14 12 14 11 8 9 10 9 9 11 12 10 10 9 8 7 7 8 7 5 7 8 8 9 10 10 11 10 9 8 7 6 7 7 7 6 4 5 4 3 3 3 2 1 1 2 2 3 3 4 5 5 6 6 7 7 7 7 7 7 8 7 7 7 7
17 15 18 20 19 19 18 18 20 14 12 13 15 14 13 17 15 14 16 17 13 13 13 20 11 10 13 12 11 11 11 12 11 12 11 10 10 9 9 10 8 9 10 10 11 10 11 11 11 10 9 8 7 7 6 5 5 5 5 4 3 3 2 2 2 3 4 4 4 4 4 5 5 5 5 6 7 6 7 9 8 6 6 7 7 7
12 16 19 20 20 21 20 17 18 16 13 12 13 16 15 13 16 18 18 15 14 14 13 15 13 9 12 13 12 12 12 12 11 11 11 10 10 10 11 11 11 11 10 11 11 11 11 10 10 9 8 9 8 7 5 5 4 5 5 4 2 2 2 1 1 2 3 3 4 5 5 6 6 6 6 5 5 5 5 5 7 7 6 8 9 8
14 19 18 21 22 21 17 16 18 19 13 11 13 17 17 15 18 16 18 15 11 12 14 17 14 9 10 11 12 13 14 13 13 11 11 10 11 12 10 10 10 11 10 10 11 12 11 11 10 10 10 9 8 7 6 6 6 5 4 3 3 2 1 1 0 2 2 3 4 5 6 6 6 6 6 5 4 4 5 6 8 7 5 6 7 6
16 16 21 22 19 16 16 16 17 20 15 9 14 16 11 14 15 15 15 14 12 13 14 16 20 10 8 11 14 16 15 15 13 13 13 14 13 12 11 11 12 12 12 11 11 12 12 11 11 11 10 10 10 9 8 7 6 5 5 4 4 4 3 2 1 2 2 4 4 5 5 5 4 5 5 4 4 4 4 7 6 7 7 6 8 9
12 15 16 16 15 15 15 17 16 20 16 14 15 14 11 12 18 16 14 15 13 12 12 17 18 11 10 11 13 15 14 15 14 14 13 13 11 11 11 11 11 10 11 11 12 11 11 10 10 10 9 9 8 7 8 7 7 6 6 6 5 5 3 3 2 4 5 5 5 6 4 6 5 4 4 4 4 4 5 6 6 7 7 6 7 8
14 15 17 13 16 15 16 16 17 19 21 14 17 15 14 7 10 14 13 12 10 9 12 16 20 16 9 11 12 15 13 15 13 11 11 12 11 11 10 10 9 9 9 9 10 11 11 10 9 9 10 9 9 8 8 7 7 7 7 7 6 7 6 5 4 6 6 6 6 6 7 6 5 6 6 6 5 4 5 5 6 7 8 7 8 6
13 10 13 13 15 12 14 16 16 17 21 14 12 15 13 11 9 12 12 13 12 12 14 18 19 22 9 12 12 11 12 15 14 15 15 13 12 10 9 9 9 9 9 9 9 10 10 9 10 9 9 9 9 8 8 7 7 6 7 7 7 7 8 8 8 9 9 8 7 7 8 8 5 6 7 7 7 6 5 5 5 5 7 8 9 9
15 16 14 15 14 19 16 16 15 16 20 14 13 15 14 11 9 11 12 14 13 12 12 16 20 17 12 10 12 12 12 10 11 12 13 13 13 11 10 10 9 8 9 9 9 9 8 8 8 9 8 8 9 8 8 8 7 7 7 8 7 7 8 7 7 8 9 9 9 9 9 8 6 5 7 8 7 6 6 6 7 7 8 9 9 9
13 16 19 16 16 16 16 17 16 16 19 17 16 16 15 14 13 11 14 8 11 13 13 16 18 12 9 14 15 15 12 12 14 12 11 11 11 11 10 9 9 8 9 9 9 8 8 8 8 8 8 8 8 9 8 8 8 7 7 8 7 7 7 7 8 8 8 8 8 8 9 9 7 6 6 5 7 8 7 6 7 9 9 9 10 10
13 15 17 20 14 18 19 17 16 14 16 17 15 16 14 12 11 11 11 13 14 11 12 16 16 9 13 7 13 18 16 15 13 13 12 12 12 12 11 11 10 10 9 8 9 9 9 8 9 8 8 8 8 8 8 8 7 8 7 8 8 8 8 8 8 8 8 8 10 9 9 9 9 8 6 5 5 7 6 5 7 8 10 9 9 10
20 12 15 20 12 21 20 20 16 17 15 15 15 13 15 13 10 11 6 11 11 9 7 8 2 6 6 11 14 13 15 15 14 12 12 11 10 11 10 10 9 9 9 8 8 9 9 9 8 8 8 8 8 8 8 8 7 8 7 8 9 9 9 9 8 8 8 8 8 9 10 10 10 9 9 6 6 6 7 7 7 8 9 11 9 9
16 14 18 19 15 20 18 17 18 17 14 15 16 17 16 14 13 8 2 3 1 6 6 4 7 8 7 9 12 14 14 14 13 12 11 11 11 10 10 9 9 9 8 8 8 8 9 9 9 8 8 7 8 8 8 9 8 9 8 9 9 9 9 9 9 9 9 9 10 9 9 10 11 11 12 9 9 6 5 7 9 8 10 12 9 9
12 12 20 20 20 18 18 18 18 20 13 12 15 15 14 15 14 9 7 5 6 10 8 12 11 10 12 5 10 14 14 12 13 12 11 11 10 10 10 10 9 9 9 8 8 8 8 8 8 8 7 8 8 8 8 9 8 8 8 8 9 10 10 11 10 9 8 9 9 9 10 11 11 11 11 11 8 9 6 4 7 7 6 9 10 11
13 11 17 21 17 18 19 17 17 18 20 15 15 11 14 13 15 13 7 11 12 12 7 10 15 9 12 9 14 16 16 15 13 13 12 11 10 11 11 11 10 9 8 8 7 7 7 8 8 8 7 7 7 7 8 8 8 8 8 7 9 11 12 11 9 10 9 9 8 8 9 10 11 11 12 10 7 5 7 9 8 7 7 10 10 10
11 9 11 18 20 20 17 16 16 17 20 19 15 15 15 12 15 12 9 8 10 11 10 10 17 9 14 12 20 20 19 17 16 14 12 11 10 9 9 9 8 8 8 7 7 7 7 7 7 7 7 7 8 8 8 8 8 8 9 11 10 9 10 10 10 9 9 9 9 10 10 10 10 11 11 11 10 7 7 7 5 6 7 10 10 10
8 8 10 15 20 15 15 14 18 18 17 17 17 16 13 10 10 10 11 12 12 11 9 8 10 7 2 14 20 20 19 19 17 15 12 12 11 11 10 9 8 8 7 7 6 6 7 7 7 8 8 7 7 8 8 8 8 9 9 8 8 11 11 11 11 11 10 10 10 11 11 10 10 12 11 11 10 8 7 7 7 6 6 6 8 11
6 10 8 13 17 18 16 18 19 19 19 17 14 15 16 16 15 15 12 12 12 12 10 9 9 6 2 5 11 17 16 16 16 14 12 12 12 11 9 9 8 8 7 7 7 7 7 7 7 8 8 8 8 9 9 9 9 9 10 11 10 9 12 12 11 11 11 10 10 12 11 12 9 10 11 12 11 9 8 8 6 6 6 6 9 10
9 9 10 13 16 17 17 20 20 19 19 17 14 15 18 14 13 12 11 12 12 11 12 11 6 3 6 2 9 15 15 17 16 14 14 13 12 11 10 9 9 8 8 7 7 6 7 7 7 8 9 9 9 9 9 9 9 9 10 8 7 12 12 11 11 10 10 10 11 11 10 10 10 10 11 11 11 11 11 12 10 8 8 7 9 9
3 7 12 14 15 15 18 19 20 18 19 18 18 17 15 16 17 14 12 10 9 8 11 8 6 5 4 2 14 14 14 15 14 14 16 13 11 11 10 9 9 8 8 8 7 7 6 7 7 7 8 9 9 9 9 9 9 9 9 11 11 11 12 11 11 10 10 11 11 11 10 11 10 11 11 11 10 12 11 11 12 11 10 10 10 9
8 8 11 12 9 12 9 14 15 12 13 14 14 16 17 17 18 15 12 8 7 12 9 6 7 4 3 3 13 15 16 16 16 14 14 15 12 11 10 9 8 9 8 8 8 8 8 8 8 8 8 9 8 8 8 9 9 9 9 10 10 11 11 11 11 11 10 11 12 11 11 11 11 11 11 12 11 12 12 12 11 10 11 11 12 11
9 9 9 12 15 16 13 15 17 16 16 13 16 19 19 19 21 16 13 9 7 10 13 7 6 9 9 9 14 17 17 16 15 14 13 13 13 11 10 9 9 8 8 8 8 9 9 8 9 9 9 8 8 8 8 9 8 9 9 10 10 10 11 11 11 11 12 11 12 12 13 12 11 11 12 12 12 12 12 12 12 12 11 11 12 12
7 7 5 4 11 12 13 13 12 15 13 15 17 21 23 22 19 17 12 9 9 9 12 9 17 16 15 13 15 14 16 17 16 14 14 13 12 11 10 9 8 8 8 9 8 8 8 9 10 9 9 8 8 9 8 9 9 9 9 10 10 10 11 12 12 11 11 11 11 11 11 12 12 12 12 11 12 12 12 12 12 13 13 11 11 12
7 5 4 4 5 8 14 17 18 19 17 18 19 18 17 17 19 20 13 9 9 6 7 11 22 20 15 16 16 15 15 15 14 14 14 13 12 11 10 10 10 9 9 8 8 8 9 9 9 9 9 9 9 9 9 8 9 9 9 10 11 11 10 9 10 11 12 12 12 11 12 12 12 12 12 12 11 11 12 12 12 13 13 14 13 11
9 4 5 6 4 4 3 8 14 18 18 16 13 14 17 14 12 10 11 3 5 6 3 14 18 22 17 15 14 13 14 14 14 13 13 13 13 12 12 11 10 10 9 9 9 8 9 9 9 9 9 9 9 10 9 9 9 10 10 10 11 10 11 11 12 11 11 12 13 13 12 11 11 12 13 13 13 12 13 12 12 13 12 12 13 13
3 4 8 8 8 4 4 9 11 16 16 15 15 15 12 12 10 10 4 3 1 7 16 13 15 18 15 15 14 12 12 14 14 12 12 13 13 13 12 11 10 10 10 9 9 8 8 8 8 8 9 10 10 11 10 10 10 10 10 10 11 11 10 10 10 12 12 12 12 13 14 13 13 13 13 13 13 13 13 13 12 12 12 13 13 12
5 2 7 13 10 7 5 7 5 8 9 11 9 8 3 9 12 7 10 14 19 13 17 22 21 15 9 14 16 13 12 12 13 13 13 13 13 12 11 11 10 10 10 9 8 8 8 8 9 9 9 10 10 11 10 10 10 10 10 10 10 11 11 11 11 10 11 12 12 12 13 13 13 13 14 14 13 13 14 14 12 12 13 13 13 13
5 6 8 9 8 7 7 10 12 11 12 13 11 7 5 10 11 10 5 3 9 14 17 17 14 10 11 14 15 14 13 14 14 13 12 11 12 11 11 11 10 10 9 8 8 8 8 9 9 9 9 9 10 10 10 10 10 10 11 10 11 10 10 10 11 12 12 12 12 13 13 13 14 14 14 15 15 14 14 13 13 13 13 13 14 14
7 7 4 7 10 7 11 12 16 18 14 11 7 6 6 7 10 12 13 11 11 15 12 6 6 12 16 15 16 14 14 14 13 12 12 12 11 11 11 11 10 9 9 8 8 9 9 9 8 9 9 9 9 9 10 10 10 10 10 10 10 10 10 11 10 11 12 12 13 13 13 13 14 14 14 15 15 14 13 14 14 14 14 14 13 13
13 8 5 7 6 8 14 12 12 13 14 7 4 1 6 5 8 13 12 12 14 6 7 10 17 17 17 15 17 16 14 12 12 11 10 10 11 11 10 10 10 9 9 8 9 9 9 8 8 8 9 9 9 9 8 9 9 9 9 10 10 11 11 10 11 12 12 12 13 13 13 13 13 14 14 14 14 14 15 14 14 14 13 12 13 13
13 13 5 5 5 7 10 13 9 9 3 4 4 1 3 9 13 16 14 12 11 14 19 20 19 18 16 15 16 16 15 14 13 13 11 10 10 10 10 10 9 8 8 9 10 9 9 8 9 8 9 9 8 8 9 9 9 9 10 10 10 11 11 11 12 12 12 12 13 13 13 13 13 13 14 14 14 14 14 14 14 14 12 11 12 13
8 9 6 2 4 3 6 7 8 3 2 1 3 6 9 10 13 17 16 13 11 11 15 18 18 17 17 17 16 15 17 17 15 12 10 10 9 10 10 9 9 8 8 8 9 8 7 9 9 8 6 3 7 9 9 9 9 10 11 10 11 11 11 11 12 13 13 13 13 13 13 13 12 13 13 14 14 14 14 14 14 13 12 12 12 11
11 9 6 5 4 7 4 4 5 7 6 5 8 7 10 8 10 4 6 6 7 9 13 17 18 17 17 16 17 16 16 14 14 10 8 9 9 9 10 10 10 9 9 9 9 8 7 6 4 5 8 10 9 8 10 9 9 8 8 9 10 12 11 11 12 13 14 13 13 13 13 12 12 13 14 14 14 14 14 14 14 13 12 12 11 12
7 6 8 9 7 4 6 7 5 4 4 7 7 9 3 5 6 11 12 6 5 9 12 16 17 17 17 16 16 16 13 11 10 7 7 8 9 10 9 9 9 9 8 8 8 7 7 7 7 8 7 8 9 9 8 9 9 10 10 10 9 10 10 12 12 13 13 12 12 13 13 13 13 13 13 13 13 14 13 13 12 12 11 11 11 11
8 5 8 8 5 7 5 4 4 5 2 2 10 10 5 5 3 7 5 6 6 10 13 15 17 16 16 16 17 14 9 7 7 7 8 9 9 9 10 9 9 9 8 8 8 7 7 7 7 7 8 8 8 9 9 9 10 10 10 10 11 10 11 11 12 12 12 11 11 13 13 13 13 12 12 13 13 13 13 13 12 12 11 10 10 10
2 4 9 10 6 7 6 7 4 4 1 4 9 9 8 4 5 5 5 6 11 13 13 16 17 16 15 15 11 7 8 9 11 10 11 11 10 10 10 10 9 9 9 8 7 7 7 7 8 8 8 9 9 9 9 9 9 10 10 10 10 11 11 11 12 11 10 11 11 12 13 12 13 12 12 12 12 11 11 11 11 13 12 11 11 11
3 5 3 4 6 8 11 4 6 3 4 7 8 8 7 5 4 5 2 9 15 15 14 14 16 15 15 12 8 5 4 9 14 16 14 12 11 11 10 9 9 9 9 8 7 7 7 8 8 9 9 8 8 9 9 8 9 9 10 10 10 12 11 10 10 10 10 10 10 11 13 13 12 12 12 12 11 10 10 11 11 11 12 11 11 11
5 3 4 6 8 9 6 7 5 6 3 5 4 5 6 4 4 3 7 13 17 17 15 15 17 16 13 9 8 10 15 20 19 16 15 13 12 11 11 10 10 10 9 8 7 7 8 8 9 9 9 9 10 9 9 9 9 9 9 10 11 11 10 11 10 10 10 10 10 10 11 12 11 11 10 11 12 13 12 12 11 11 11 10 11 12
4 1 3 4 0 4 5 7 6 5 3 6 8 6 2 3 5 9 14 15 15 17 17 16 15 13 11 13 15 18 19 19 18 16 15 14 13 12 11 11 10 10 9 8 8 8 8 8 9 9 9 8 8 8 9 10 10 10 9 10 10 9 10 10 10 11 10 10 10 10 10 10 12 11 10 11 12 13 13 12 12 12 12 12 12 12
8 2 3 3 6 3 6 5 2 5 10 9 7 2 4 7 12 14 15 16 15 15 15 13 12 12 14 16 18 18 18 19 17 16 15 14 13 12 11 10 10 9 9 9 9 9 9 9 8 9 9 8 9 8 8 9 10 9 10 11 9 9 9 9 10 10 11 11 12 11 11 12 13 13 12 12 11 11 12 13 13 12 11 12 12 12
10 6 6 5 8 5 6 6 8 9 9 6 8 12 12 13 13 14 14 15 15 13 13 13 14 15 16 18 18 19 17 16 17 16 15 15 13 12 11 11 10 10 9 9 9 9 8 9 9 9 8 8 8 8 8 9 9 9 10 9 9 9 9 9 9 9 10 10 11 11 11 10 12 13 13 12 13 12 13 14 14 13 13 12 12 12
6 8 9 11 11 15 14 11 10 10 10 10 11 11 13 14 14 14 16 14 13 13 12 14 16 17 17 17 18 16 16 17 17 16 15 13 12 12 11 11 10 9 10 10 9 9 9 9 9 9 9 9 8 8 7 7 8 10 9 9 9 9 9 9 9 10 10 10 9 10 10 11 11 12 13 14 12 12 13 14 14 13 13 13 13 12
3 2 3 8 13 4 6 7 11 11 11 12 13 13 13 14 13 12 13 14 14 15 16 16 17 18 17 16 17 18 18 17 17 16 15 14 13 12 12 12 11 10 10 10 9 8 8 8 8 9 8 9 7 6 7 9 9 9 9 9 8 9 9 10 9 9 9 9 9 9 9 10 9 8 10 12 11 12 12 12 11 12 13 13 13 12
4 2 8 9 7 3 9 10 11 12 11 12 11 12 15 15 15 14 14 15 16 16 17 18 17 17 16 17 17 18 18 16 17 16 14 13 12 12 12 12 11 11 10 9 9 8 8 8 8 7 7 8 6 7 7 8 8 9 9 8 8 8 8 9 9 9 9 10 9 9 9 9 8 9 8 9 10 11 11 11 11 11 11 11 11 12
6 6 4 7 8 11 12 11 11 13 13 12 13 12 12 13 14 16 17 18 19 19 18 16 14 15 16 17 18 18 18 16 16 15 15 14 13 12 12 11 10 10 9 8 8 7 7 7 8 8 8 7 6 7 8 8 8 9 9 9 9 9 8 8 9 9 10 9 8 8 8 8 8 9 8 8 8 9 8 9 9 9 9 8 7 8
5 8 11 10 11 8 8 12 16 11 10 10 12 13 14 15 16 17 17 18 18 19 18 19 17 16 17 17 17 16 17 16 16 15 15 14 13 13 12 11 11 10 10 9 8 8 8 8 8 8 7 7 7 7 8 8 8 9 9 9 9 9 8 8 8 8 8 8 8 8 7 8 8 9 9 8 6 6 7 9 11 11 7 6 3 6
5 9 6 5 5 7 12 17 8 12 14 12 13 13 15 15 16 18 18 18 18 18 18 20 21 19 17 16 15 16 16 16 16 15 14 13 13 12 12 12 11 10 10 9 9 9 9 7 6 7 8 9 8 6 7 9 8 9 9 9 9 10 10 10 8 8 8 8 8 8 7 7 8 8 8 8 9 7 5 5 7 10 9 8 3 4
Wind_Direction
166 201 198 206 209 203 207 209 214 226 201 205 194 211 206 200 197 183 173 178 184 186 199 196 168 141 135 137 136 128 113 142 165 161 173 168 170 172 162 146 128 120 128 105 107 109 114 95 81 65 49 45 55 37 35 42 52 36 50 51 64 40 29 3 10 334 359 351 325 316 294 283 257 251 259 263 254 237 224 181 180 237 233 233 230 232
186 208 209 207 211 205 206 209 215 227 235 209 194 209 196 212 190 188 180 167 185 196 187 190 148 151 130 133 133 138 160 154 169 175 175 170 172 166 139 136 120 104 104 106 111 118 100 85 76 64 55 46 55 51 45 42 38 26 25 31 50 62 73 76 77 78 319 235 263 279 279 279 273 266 248 254 253 254 244 238 216 234 237 231 221 219
200 210 208 204 210 206 208 207 211 224 225 229 203 199 200 201 186 128 140 168 177 201 190 181 139 148 137 129 133 142 131 126 127 151 162 165 135 125 124 101 111 110 104 104 97 80 80 72 69 76 71 63 60 61 55 50 50 48 41 35 43 36 58 69 48 336 249 246 267 258 265 257 273 263 269 275 266 275 279 262 263 257 249 245 235 214
202 211 209 201 207 211 205 205 210 214 216 213 206 199 208 182 196 158 168 185 179 207 184 146 160 138 128 129 133 143 143 137 129 113 96 133 142 124 101 96 99 97 106 85 76 71 71 71 68 74 77 71 64 54 53 46 51 55 51 51 57 54 33 39 51 15 237 263 273 256 263 268 263 274 265 251 236 237 230 246 242 247 248 253 260 231
206 200 202 203 206 211 202 199 209 201 204 215 214 204 209 188 192 157 156 188 180 213 175 167 159 156 164 156 154 140 129 125 120 110 107 96 101 98 107 88 80 91 90 86 78 74 71 69 70 70 70 73 67 62 50 46 40 42 43 45 41 57 65 22 6 283 272 216 229 229 245 258 262 251 251 251 247 238 232 235 234 235 232 238 243 242
207 201 191 205 201 205 205 198 207 193 204 207 224 225 208 205 154 167 164 184 181 197 200 187 179 190 182 179 167 151 151 138 131 124 118 118 113 125 122 110 105 82 75 85 84 79 75 73 66 60 62 62 63 59 55 58 61 67 72 67 78 94 121 147 230 261 259 253 258 247 242 245 256 266 256 260 271 254 238 239 240 222 214 223 235 234
204 196 191 199 198 202 206 206 195 195 209 204 201 230 221 197 175 182 172 181 186 192 193 191 191 181 177 185 166 168 160 146 133 120 121 123 119 105 91 92 100 92 84 82 81 75 74 70 70 68 64 61 60 59 72 77 66 64 68 72 81 98 96 160 175 270 254 253 252 259 268 275 282 286 282 287 288 275 268 255 241 222 206 221 232 239
212 188 189 199 200 201 202 203 191 198 213 211 178 212 223 189 200 176 179 190 192 197 182 193 205 181 177 185 170 171 162 157 136 129 124 116 108 92 82 79 81 86 84 83 78 75 72 70 69 70 63 59 53 55 65 72 72 68 59 43 60 57 79 90 286 219 272 272 274 279 275 271 272 282 296 294 282 279 268 252 241 225 215 212 224 232
202 190 196 194 193 195 199 200 187 199 216 202 171 201 232 230 171 183 196 195 203 184 186 194 207 213 177 164 172 168 168 163 146 139 117 99 92 97 96 87 80 75 76 74 71 60 55 54 52 49 48 40 34 29 39 51 54 54 51 45 39 32 30 50 252 296 251 267 297 291 287 280 286 287 293 296 278 262 250 253 243 227 217 211 213 223
187 217 183 185 187 199 203 199 198 194 213 218 166 188 218 233 179 186 200 198 205 198 201 195 200 210 179 165 179 180 176 165 148 127 117 109 100 96 91 87 83 81 77 74 73 71 65 63 58 56 58 53 43 36 30 35 35 31 29 26 25 34 15 353 314 299 303 291 290 290 287 287 287 291 293 288 291 269 247 246 235 228 222 212 218 219
185 214 169 200 200 205 201 199 201 192 216 224 167 186 198 189 188 192 211 209 201 215 210 192 199 214 172 180 191 184 181 163 140 131 128 114 106 96 92 91 86 81 78 76 73 70 69 64 63 60 57 55 51 42 35 34 30 28 21 7 22 12 355 347 328 310 306 296 292 293 300 300 292 281 273 276 272 247 247 239 223 224 227 220 215 208
168 179 194 199 212 209 202 195 196 193 214 213 183 189 186 196 211 213 210 209 215 202 206 206 202 209 202 182 185 173 169 156 162 152 144 130 112 106 96 87 83 76 73 72 70 68 65 63 57 53 53 49 45 40 35 28 29 25 23 14 11 18 358 353 342 333 327 315 307 306 300 300 296 273 270 268 268 252 243 245 223 219 227 226 223 215
183 196 196 199 202 208 188 206 180 195 210 189 194 195 189 182 186 194 204 207 216 216 192 208 194 202 209 170 171 130 128 140 149 151 140 129 117 110 96 87 81 78 77 72 69 67 61 57 52 48 45 44 37 33 29 27 21 19 16 11 2 5 359 348 340 334 331 325 323 322 318 309 310 291 281 279 272 280 252 245 238 225 234 232 228 225
189 190 188 195 187 207 199 203 176 192 207 184 195 196 191 188 183 198 197 203 212 213 202 214 183 211 136 128 131 121 108 112 108 117 120 119 111 104 102 96 91 84 78 74 71 67 61 56 52 47 39 35 33 29 27 23 20 16 14 13 4 3 357 349 344 337 331 325 321 320 317 314 314 296 277 265 279 265 252 253 247 245 240 238 233 231
184 185 193 187 191 187 207 214 182 196 190 193 203 201 202 196 186 194 193 198 205 193 212 199 193 151 140 118 102 109 110 106 102 104 105 105 108 107 104 103 97 91 80 73 66 62 58 53 50 44 37 32 29 27 24 22 19 16 13 9 6 2 358 352 349 338 334 330 329 330 324 318 313 306 293 293 291 281 273 288 281 279 262 245 243 237
193 201 175 195 183 183 209 196 192 195 188 197 211 211 209 208 171 201 195 218 195 188 190 203 129 21 116 119 115 121 121 113 110 114 119 115 113 112 106 100 97 89 85 79 75 69 62 54 49 45 39 32 24 22 20 16 18 15 10 6 6 0 357 353 348 347 341 338 334 329 331 326 316 310 303 287 256 274 281 282 287 281 288 275 262 253
187 201 177 187 189 186 212 193 194 193 199 184 208 208 208 208 189 195 188 8 186 184 200 135 92 101 109 125 139 135 125 126 126 125 125 120 117 110 102 99 93 88 83 78 71 64 60 54 48 43 36 31 25 18 15 14 15 16 9 5 1 358 357 354 353 360 349 346 338 333 333 334 326 317 309 305 293 294 305 318 310 295 279 282 279 268
187 188 168 175 188 181 200 204 204 188 219 177 214 204 206 215 219 192 210 161 212 197 191 182 148 155 166 162 161 151 136 141 146 138 132 127 123 112 109 104 99 92 83 77 72 65 57 52 44 35 29 25 21 16 11 12 11 12 9 358 6 360 4 359 352 351 347 347 345 341 340 334 326 322 314 316 310 301 308 270 258 284 293 279 279 278
214 186 170 180 189 176 184 201 220 196 212 210 203 194 210 183 211 190 214 187 199 202 180 197 170 174 198 154 167 164 153 144 147 142 140 130 122 115 108 102 96 90 81 68 59 55 48 40 36 30 23 19 20 17 11 13 7 12 5 1 16 4 5 2 354 354 350 349 350 346 338 333 330 325 323 321 332 340 311 308 301 273 287 287 280 270
209 191 174 173 198 171 176 195 205 194 199 227 197 211 224 216 212 196 206 204 207 200 200 196 202 199 209 159 176 165 157 153 149 147 142 132 125 115 108 101 94 88 80 74 65 54 50 45 38 32 23 24 22 17 15 13 10 13 14 11 12 9 6 5 2 357 351 354 351 347 344 340 334 332 334 342 336 327 319 303 291 293 278 274 278 278
199 189 181 174 188 165 192 193 205 192 189 206 204 198 205 227 208 224 194 213 201 212 196 194 197 189 104 162 169 164 159 151 157 142 137 129 119 111 108 104 95 89 84 76 68 60 51 45 41 38 34 29 27 25 19 17 16 12 11 1 18 13 7 7 7 360 359 355 354 347 346 344 339 338 334 335 342 328 316 315 310 294 275 298 278 274
205 160 188 173 189 190 194 188 204 196 198 208 210 205 195 201 194 206 200 206 208 207 194 191 195 107 40 343 145 156 150 149 147 130 130 122 117 112 106 102 103 99 87 77 72 62 53 48 48 47 42 36 27 26 16 18 17 12 15 5 350 30 17 9 9 7 358 0 352 350 347 348 348 343 339 338 334 342 321 313 297 287 278 271 281 265
211 165 187 189 193 187 193 180 206 204 201 195 201 219 215 201 207 207 207 196 218 216 214 191 170 107 37 41 175 146 152 136 137 141 130 125 116 112 110 105 98 91 84 78 73 64 60 53 47 42 40 36 35 27 21 16 17 14 7 359 360 29 14 13 10 8 6 5 359 354 355 351 350 348 347 341 338 336 336 326 314 301 289 268 255 270
216 198 187 196 192 177 191 183 203 210 193 198 208 224 206 207 206 211 217 195 211 214 228 185 159 128 35 55 138 138 145 134 136 137 133 123 120 117 112 105 103 96 88 88 81 70 61 57 46 44 41 38 33 29 21 17 17 13 15 9 3 15 19 13 10 6 8 10 4 6 360 357 353 352 349 346 340 337 330 324 317 313 304 301 298 293
193 202 200 181 182 182 187 183 180 207 223 201 200 211 213 206 209 222 230 207 218 219 229 212 168 169 110 132 135 136 137 135 132 132 131 124 118 112 109 108 106 102 96 86 80 71 66 57 51 45 43 39 35 29 23 17 19 17 16 11 10 14 14 12 6 5 5 13 3 6 2 5 2 355 350 346 341 336 330 323 318 311 311 309 308 302
213 175 192 190 188 178 179 192 186 186 205 203 199 195 219 214 204 201 219 191 223 214 201 208 115 116 116 120 121 132 131 126 125 125 120 117 119 118 117 110 108 103 94 90 81 72 64 57 52 49 43 39 34 30 25 20 20 19 15 16 11 13 12 13 5 7 4 12 4 7 3 4 3 357 353 348 344 341 334 330 323 318 309 307 305 303
208 186 194 257 215 187 191 184 182 187 192 207 194 200 202 210 201 207 216 203 196 215 217 187 139 138 138 133 130 131 134 130 128 128 124 121 117 115 119 118 112 106 99 89 82 74 68 61 56 50 49 42 37 30 27 23 21 20 16 16 17 16 16 14 2 0 357 8 11 7 6 4 1 357 358 352 344 344 340 335 329 322 316 309 306 306
192 182 204 110 327 213 191 192 185 191 190 201 205 196 195 210 205 200 210 209 211 225 213 112 139 139 151 146 139 135 132 130 130 130 123 122 122 124 123 118 115 113 105 100 87 74 66 64 58 53 50 43 37 29 30 26 27 22 19 18 19 18 14 7 2 6 9 2 2 12 8 6 3 348 3 356 350 347 343 337 335 334 332 324 313 306
181 182 128 146 150 60 178 174 185 188 198 194 190 198 203 200 225 206 193 98 13 244 171 144 144 140 147 147 140 135 137 131 132 128 125 125 124 123 124 120 116 109 106 99 92 77 68 64 58 54 44 31 21 21 23 21 27 22 23 23 18 13 13 11 6 5 5 5 2 6 4 5 4 355 3 355 353 353 348 345 342 340 340 339 337 330
156 137 180 145 113 104 171 178 197 203 191 183 186 195 200 203 194 207 199 201 219 101 122 141 124 122 136 136 135 127 125 125 121 120 122 125 125 125 123 121 117 112 106 97 85 77 65 56 51 40 28 21 18 18 16 16 21 20 19 16 17 10 10 13 6 10 9 8 4 2 359 2 3 1 3 359 356 355 351 350 350 347 346 347 344 341
140 195 183 159 155 137 152 161 149 118 142 152 141 120 182 206 192 138 87 107 106 110 107 116 116 108 105 124 121 117 118 119 118 123 125 122 124 124 122 123 120 113 107 95 83 75 64 57 47 36 27 21 19 16 14 13 18 18 17 16 15 12 6 10 10 10 6 7 10 5 2 4 3 1 4 1 360 356 356 355 353 352 351 350 349 347
213 155 175 165 128 144 164 160 156 135 109 107 95 93 139 143 130 124 133 92 129 131 126 119 120 128 130 124 120 120 121 121 121 122 122 120 123 125 124 121 117 107 97 92 84 77 67 58 46 35 26 23 18 16 17 13 14 17 17 16 14 12 8 12 9 11 9 9 5 9 6 5 6 7 5 3 3 1 360 359 358 359 355 354 355 353
167 171 189 166 162 163 151 153 136 126 115 101 104 79 37 72 100 94 75 69 106 131 138 171 125 140 141 136 127 128 125 122 120 121 119 121 120 121 120 119 115 106 90 82 76 71 63 54 46 36 28 27 22 19 18 15 14 18 16 15 16 12 12 14 4 13 13 11 10 8 8 7 10 10 9 7 5 5 4 2 4 2 359 357 358 355
159 172 181 186 159 148 160 154 162 174 181 144 73 75 289 116 106 94 79 61 40 47 59 78 120 133 136 136 128 128 122 118 114 107 108 118 120 118 116 116 113 99 87 79 73 68 61 55 48 41 35 34 32 26 23 20 18 18 19 17 20 17 19 10 9 22 14 14 10 9 9 9 10 12 12 10 8 8 7 7 5 4 2 359 1 0
181 160 188 145 148 154 152 161 182 198 136 75 193 4 9 95 87 89 83 72 88 96 102 107 120 129 131 124 118 112 108 104 99 102 105 108 112 113 114 113 108 99 85 84 76 69 60 54 51 47 38 31 28 30 26 23 19 21 22 21 23 23 19 9 20 20 18 16 13 10 9 8 10 10 13 13 13 11 11 10 4 6 5 4 3 6
185 177 136 95 127 144 165 181 176 137 58 176 120 119 102 116 108 87 72 67 82 99 114 119 124 122 118 113 111 113 110 103 93 86 94 103 107 113 115 110 106 93 82 82 77 67 72 60 48 43 47 19 11 24 30 26 20 22 20 21 24 23 14 8 23 20 20 17 16 10 8 12 12 11 12 15 15 17 15 11 10 8 7 7 10 10
187 178 152 127 180 170 155 103 77 119 123 139 145 146 159 149 183 171 115 70 80 105 118 120 121 121 118 118 120 118 116 106 92 81 85 100 105 106 108 110 113 104 98 90 81 78 71 76 80 36 38 34 28 26 22 16 6 23 28 24 28 22 15 15 24 20 21 23 16 13 13 17 18 14 14 15 16 18 17 15 13 13 10 12 12 11
175 187 156 149 182 198 140 126 137 183 175 181 195 179 133 50 44 85 105 107 103 116 129 131 130 131 127 129 132 135 137 103 83 88 106 112 111 110 106 104 99 98 94 88 82 79 69 54 55 50 40 36 35 28 26 23 13 12 17 17 18 27 19 21 24 25 26 25 21 24 24 22 22 19 16 20 21 19 20 20 19 17 16 18 15 15
166 213 194 167 174 149 183 180 175 159 41 104 152 174 163 219 185 152 143 115 146 142 145 142 135 136 139 141 146 158 152 107 114 129 133 127 121 117 114 108 103 97 91 84 81 78 73 65 53 52 47 43 38 34 30 29 30 22 24 19 18 21 25 27 27 29 28 28 27 27 26 25 23 20 16 20 20 18 19 22 23 23 23 23 21 19
117 195 194 192 181 186 168 188 161 40 108 132 133 154 170 158 203 218 224 166 159 149 148 147 141 142 143 145 152 183 158 133 149 147 141 131 124 117 114 114 110 103 95 95 86 74 68 66 67 57 55 50 43 38 35 33 38 37 31 26 24 25 27 27 30 34 32 29 28 29 27 25 24 19 15 14 16 18 18 16 17 20 23 25 28 28
146 233 168 186 189 169 176 134 91 93 67 122 143 153 139 156 196 205 219 116 151 145 147 146 141 139 140 146 170 144 80 108 124 133 133 128 124 117 112 109 107 103 99 92 86 85 79 71 64 63 60 59 54 48 45 43 43 41 36 31 27 27 25 27 33 34 34 33 27 26 25 28 26 22 17 11 9 15 19 21 19 14 14 17 21 23
152 164 163 171 187 181 165 116 91 93 94 116 137 138 134 175 197 146 84 128 136 140 143 142 134 137 137 122 105 100 105 112 122 126 130 130 125 120 119 115 109 102 99 97 102 97 89 80 77 74 68 60 56 54 47 41 45 43 41 37 33 29 23 20 27 35 36 35 35 28 29 28 24 25 22 17 14 13 13 13 19 21 21 15 17 21
29 285 151 134 339 139 158 125 152 153 169 201 146 133 13 267 84 113 125 125 134 134 138 135 135 134 124 114 111 114 117 120 124 126 125 125 124 122 118 114 111 113 115 113 101 95 97 89 80 74 69 66 60 55 53 49 43 41 42 45 40 34 28 22 20 27 33 32 34 35 30 31 26 22 25 25 24 23 19 15 13 15 19 22 22 22
5 258 142 81 2 238 162 134 72 67 133 160 186 127 85 78 123 128 129 127 130 133 133 134 128 130 131 127 125 120 120 121 121 124 124 123 120 116 115 113 113 109 104 98 94 90 85 87 85 78 69 58 51 48 47 45 48 43 41 42 44 45 35 32 29 26 28 29 27 26 26 28 29 23 22 24 24 29 29 22 18 20 14 16 24 22
21 51 18 82 28 30 60 101 93 79 95 93 86 98 106 114 123 127 123 126 130 129 130 127 129 130 129 126 123 124 122 123 124 126 124 123 123 121 119 118 114 113 112 108 104 102 95 86 83 80 77 70 63 53 46 44 45 44 44 44 41 42 41 37 34 30 29 28 29 28 27 34 39 31 21 20 21 24 25 27 20 18 17 19 22 24
63 76 100 87 85 88 71 80 106 104 94 93 96 106 115 119 118 123 125 125 126 125 130 131 133 130 129 129 126 125 125 128 126 125 124 124 123 120 119 120 121 119 111 109 106 100 99 93 83 77 69 65 58 56 50 46 45 45 42 41 41 41 39 38 40 33 30 32 30 26 28 28 30 37 38 33 27 24 28 34 28 22 18 16 18 23
104 217 81 98 151 140 77 99 100 107 115 105 105 108 112 116 119 121 123 123 125 126 123 127 129 131 132 132 128 127 128 129 126 125 125 124 124 126 128 127 122 117 112 104 104 104 92 89 82 76 70 69 61 55 52 48 47 45 43 42 39 44 43 38 38 42 37 33 30 32 32 36 26 28 34 35 37 36 34 37 39 32 25 20 17 20
117 195 118 106 70 61 124 120 109 105 110 115 116 118 119 118 115 114 115 120 120 122 124 126 129 128 132 128 128 128 128 130 128 127 128 130 131 131 127 122 120 118 109 106 106 97 90 85 83 81 77 72 65 57 55 52 48 44 45 44 44 46 47 49 40 38 40 36 35 31 29 32 30 32 51 46 37 31 32 38 48 48 38 30 26 20
117 207 97 81 96 96 105 116 122 108 103 112 116 112 114 119 118 115 117 120 121 122 125 125 127 129 129 128 129 130 130 134 133 134 132 134 132 127 124 121 117 115 116 108 94 95 101 102 96 90 81 75 68 69 62 57 51 45 43 39 43 47 47 44 49 49 44 39 34 36 29 30 28 31 45 77 62 56 39 24 30 53 63 49 49 53
175 107 100 108 123 148 159 153 143 129 131 119 120 121 119 118 123 122 122 123 125 127 128 128 126 126 126 129 133 133 131 132 132 131 129 129 127 124 124 125 125 121 119 117 116 114 113 110 105 94 84 81 67 60 62 59 56 51 46 42 38 39 40 43 45 45 47 46 39 24 29 25 27 29 27 45 96 103 72 42 35 19 48 86 62 64
114 118 159 145 159 164 146 157 152 115 123 125 122 125 127 127 129 129 129 128 129 129 130 130 130 130 132 135 134 131 130 132 132 132 130 128 128 132 130 130 131 127 118 124 129 116 91 81 82 99 100 87 70 53 54 63 55 51 51 48 48 44 39 27 31 39 36 39 47 36 23 31 28 24 24 25 20 37 104 117 62 48 33 33 64 76